Regional Weather Roundup
Issued by NWS Glasgow, MT

Home | Current Version | Previous Version | Text Only | Print | Product List | Glossary On
Versions: 1 2 3 4 5 6 7 8 9 10 11 12 13 14 15 16 17 18 19 20 21 22 23 24 25 26 27 28 29 30 31 32 33 34 35 36 37 38 39 40 41 42 43 44 45 46 47 48 49 50
000
ASUS45 KGGW 240415
RWRGGW
HOURLY WEATHER ROUNDUP FOR NORTHEAST MONTANA
NATIONAL WEATHER SERVICE GLASGOW MONTANA
1000 PM MDT TUE SEP 23 2014

NOTE: "FAIR" INDICATES FEW OR NO CLOUDS BELOW 12,000 FEET WITH NO
SIGNIFICANT WEATHER AND/OR OBSTRUCTIONS TO VISISBILITY.

NORTHEAST MONTANA


CITY           SKY/WX    TMP DP  RH WIND       PRES   REMARKS
GLASGOW        CLEAR     64  50  60 W5        29.90R
PLENTYWOOD       N/A     66  41  40 NW9         N/A
WOLF POINT     CLEAR     63  52  67 S5        29.88R
JORDAN           N/A     56  50  80 W3        29.95R
WINNETT          N/A     55  48  77 W3          N/A
SIDNEY         CLEAR    N/A N/A N/A SW3       29.88R
GLENDIVE       CLEAR     63  48  59 W12       29.93R
MALTA            N/A     62  49  62 SW2         N/A
SCOBEY           N/A     60  45  57 CALM      29.88S

FORT PECK REPORTS


CITY           SKY/WX    TMP DP  RH WIND       PRES   REMARKS
FORT PECK        N/A     71  53  52 W3          N/A
THE PINES        N/A     70  46  42 W6          N/A

SOUTHEAST MONTANA


CITY           SKY/WX    TMP DP  RH WIND       PRES   REMARKS
BILLINGS       PTCLDY    70  46  42 W13       30.02S
MILES CITY     CLEAR     65  46  50 W10       29.95R
BAKER          CLEAR     60  47  61 W5        29.96R
LIVINGSTON     PTCLDY    65  47  52 CALM      30.09R

CENTRAL MONTANA


CITY           SKY/WX    TMP DP  RH WIND       PRES   REMARKS
HAVRE          MOCLDY    62  50  64 S6        29.93S
LEWISTOWN      MOCLDY    61  49  64 SE6       30.04S
GREAT FALLS    PTCLDY    63  44  50 S9        29.97S
CUT BANK       MOCLDY    62  48  60 SW5       29.97R
HELENA         MOCLDY    62  53  72 SW7       30.04R
BUTTE          PTCLDY    56  44  64 SE6       30.13R
BOZEMAN        MOCLDY    62  51  67 SE12      30.08S

WESTERN MONTANA


CITY           SKY/WX    TMP DP  RH WIND       PRES   REMARKS
MISSOULA       CLOUDY    68  50  52 SE7       29.95F
KALISPELL      NOT AVBL

NORTH DAKOTA


CITY           SKY/WX    TMP DP  RH WIND       PRES   REMARKS
WILLISTON      CLEAR     62  50  64 S3        29.85R
DICKINSON      CLEAR     60  55  83 S10       29.90R
MINOT          CLEAR     58  55  90 SE9       29.89R
BISMARCK       CLOUDY    60  57  89 S10       29.95R

SOUTHERN SASKATCHEWAN


CITY           SKY/WX    TMP DP  RH WIND       PRES   REMARKS
REGINA         CLEAR     59  54  82 W2        29.82R
ESTEVAN        PTCLDY    61  55  82 S7        29.84R
SWIFT CURRENT  CLEAR     59  50  72 W14       29.91R



USA.gov is the U.S. government's official web portal to all federal, state and local government web resources and services.